Hourly Data Report for August 31, 2004

TORONTO CITY
ONTARIO

43°40'00.000" N
79°24'00.000" W
112.50 m
6158355
71508
XTO

Download Data

Hourly Data (August 2004)
Hourly Data Report for August 31, 2004
TIME
LST
Temp Definition
°C
Dew Point Definition
°C
Rel Hum Definition
%
Precip. Amount Definition
mm

Wind Dir Definition
10's deg

Wind Spd Definition
km/h
Visibility Definition
km
Stn Press Definition
kPa
Hmdx Definition


Wind Chill Definition


Weather Definition


00:00 17.0 12.7 76   LegendMM LegendMM LegendMM 100.42     LegendNANA
01:00 16.1 12.6 80   LegendMM LegendMM LegendMM 100.42     LegendNANA
02:00 15.5 12.6 83   LegendMM LegendMM LegendMM 100.45     LegendNANA
03:00 13.7 12.4 92   LegendMM LegendMM LegendMM 100.49     LegendNANA
04:00 13.2 12.4 95   LegendMM LegendMM LegendMM 100.52     LegendNANA
05:00 12.9 12.3 96   LegendMM LegendMM LegendMM 100.55     LegendNANA
06:00 12.9 12.4 97   LegendMM LegendMM LegendMM 100.58     LegendNANA
07:00 15.2 12.6 84   LegendMM LegendMM LegendMM 100.63     LegendNANA
08:00 17.6 12.9 74   LegendMM LegendMM LegendMM 100.62     LegendNANA
09:00 19.1 13.6 70   LegendMM LegendMM LegendMM 100.63     LegendNANA
10:00 20.5 15.3 72   LegendMM LegendMM LegendMM 100.64 25   LegendNANA
11:00 21.6 15.4 68   LegendMM LegendMM LegendMM 100.62 26   LegendNANA
12:00 21.5 15.9 70   LegendMM LegendMM LegendMM 100.62 26   LegendNANA
13:00 23.0 14.5 59   LegendMM LegendMM LegendMM 100.60 27   LegendNANA
14:00 23.9 16.0 61   LegendMM LegendMM LegendMM 100.56 29   LegendNANA
15:00 22.7 16.5 68   LegendMM LegendMM LegendMM 100.52 28   LegendNANA
16:00 22.9 16.7 68   LegendMM LegendMM LegendMM 100.48 28   LegendNANA
17:00 24.4 14.5 54   LegendMM LegendMM LegendMM 100.49 28   LegendNANA
18:00 23.9 15.0 57   LegendMM LegendMM LegendMM 100.51 28   LegendNANA
19:00 22.7 14.6 60   LegendMM LegendMM LegendMM 100.55 26   LegendNANA
20:00 21.5 15.0 66   LegendMM LegendMM LegendMM 100.64 25   LegendNANA
21:00 19.8 15.4 76   LegendMM LegendMM LegendMM 100.68     LegendNANA
22:00 18.7 15.3 81   LegendMM LegendMM LegendMM 100.69     LegendNANA
23:00 18.1 14.8 81   LegendMM LegendMM LegendMM 100.72     LegendNANA

Notes on Data Quality.

Legend

  • E = Estimated
  • M = Missing
  • NA = Not Available*
  • [empty] = Indicates an unobserved value
Date modified: